• Em Portugal
  • Lista de países
  • Para 7 dias
  • Temperatura da água
  • Mapas de satélite
  • Mapa do tempo
  • Widgets de tempo
  • user-avatar
    Iniciar Sessão

    Previsão horária em Mochudi

    Hoje, 26 Maio, Sábado

    Tempo Temperatura Precipitação Vento Pressão Humidade
    00:00 +20°C° 0 mm 1 m/s 682 mmHg 30%
    01:00 +18°C° 0 mm 0 m/s 681 mmHg 31%
    02:00 +17°C° 0 mm 0 m/s 681 mmHg 33%
    03:00 +16°C° 0 mm 0 m/s 681 mmHg 33%
    04:00 +16°C° 0 mm 0 m/s 681 mmHg 34%
    05:00 +16°C° 0 mm 0 m/s 681 mmHg 35%
    06:00 +16°C° 0 mm 0 m/s 682 mmHg 33%
    07:00 +17°C° 0 mm 0 m/s 682 mmHg 32%
    08:00 +19°C° 0 mm 0 m/s 683 mmHg 32%
    09:00 +23°C° 0 mm 1 m/s 684 mmHg 29%
    10:00 +25°C° 0 mm 1 m/s 684 mmHg 25%
    11:00 +28°C° 0 mm 1 m/s 685 mmHg 22%
    12:00 +29°C° 0 mm 1 m/s 684 mmHg 20%
    13:00 +29°C° 0 mm 1 m/s 684 mmHg 19%
    14:00 +30°C° 0 mm 1 m/s 683 mmHg 17%
    15:00 +29°C° 0 mm 1 m/s 683 mmHg 18%
    16:00 +29°C° 0 mm 1 m/s 683 mmHg 19%
    17:00 +28°C° 0 mm 1 m/s 682 mmHg 20%
    18:00 +26°C° 0 mm 1 m/s 682 mmHg 21%
    19:00 +25°C° 0 mm 1 m/s 683 mmHg 23%
    20:00 +23°C° 0 mm 1 m/s 683 mmHg 25%
    21:00 +23°C° 0 mm 1 m/s 683 mmHg 26%
    22:00 +22°C° 0 mm 1 m/s 683 mmHg 26%
    23:00 +22°C° 0 mm 1 m/s 683 mmHg 27%

    Amanhã, 27 Maio, Domingo

    Tempo Temperatura Precipitação Vento Pressão Humidade
    00:00 +21°C° 0 mm 1 m/s 683 mmHg 29%
    01:00 +20°C° 0 mm 1 m/s 683 mmHg 31%
    02:00 +20°C° 0 mm 1 m/s 683 mmHg 33%
    03:00 +19°C° 0 mm 1 m/s 683 mmHg 35%
    04:00 +19°C° 0 mm 1 m/s 683 mmHg 37%
    05:00 +18°C° 0 mm 1 m/s 683 mmHg 38%
    06:00 +18°C° 0 mm 1 m/s 683 mmHg 39%
    07:00 +19°C° 0 mm 1 m/s 684 mmHg 39%
    08:00 +19°C° 0 mm 1 m/s 684 mmHg 40%
    09:00 +22°C° 0 mm 1 m/s 685 mmHg 37%
    10:00 +24°C° 0 mm 2 m/s 685 mmHg 33%
    11:00 +26°C° 0 mm 2 m/s 686 mmHg 30%
    12:00 +27°C° 0 mm 2 m/s 685 mmHg 27%
    13:00 +29°C° 0 mm 2 m/s 685 mmHg 24%
    14:00 +30°C° 0 mm 2 m/s 685 mmHg 20%
    15:00 +29°C° 0 mm 1 m/s 684 mmHg 21%
    16:00 +28°C° 0 mm 1 m/s 684 mmHg 22%
    17:00 +28°C° 0 mm 1 m/s 684 mmHg 22%
    18:00 +26°C° 0 mm 1 m/s 684 mmHg 24%
    19:00 +25°C° 0 mm 2 m/s 684 mmHg 26%
    20:00 +24°C° 0 mm 2 m/s 684 mmHg 28%
    21:00 +23°C° 0 mm 2 m/s 684 mmHg 30%
    22:00 +21°C° 0 mm 2 m/s 685 mmHg 33%
    23:00 +20°C° 0 mm 2 m/s 685 mmHg 35%

    Depois de amanhã, 28 Maio, Segunda-feira

    Tempo Temperatura Precipitação Vento Pressão Humidade
    00:00 +20°C° 0 mm 2 m/s 685 mmHg 38%
    01:00 +19°C° 0 mm 2 m/s 684 mmHg 41%
    02:00 +18°C° 0 mm 2 m/s 684 mmHg 44%
    03:00 +18°C° 0 mm 2 m/s 684 mmHg 47%
    04:00 +17°C° 0 mm 2 m/s 684 mmHg 50%
    05:00 +18°C° 0 mm 1 m/s 684 mmHg 53%
    06:00 +18°C° 0 mm 1 m/s 684 mmHg 54%
    07:00 +18°C° 0 mm 1 m/s 685 mmHg 54%
    08:00 +19°C° 0 mm 1 m/s 685 mmHg 55%
    09:00 +20°C° 0 mm 2 m/s 686 mmHg 48%
    10:00 +24°C° 0 mm 2 m/s 686 mmHg 41%
    11:00 +26°C° 0 mm 3 m/s 687 mmHg 34%
    12:00 +27°C° 0 mm 3 m/s 686 mmHg 30%
    13:00 +28°C° 0 mm 3 m/s 685 mmHg 26%
    14:00 +30°C° 0 mm 3 m/s 685 mmHg 22%
    15:00 +29°C° 0 mm 2 m/s 684 mmHg 22%
    16:00 +28°C° 0 mm 2 m/s 684 mmHg 23%
    17:00 +28°C° 0 mm 1 m/s 683 mmHg 23%
    18:00 +26°C° 0 mm 1 m/s 683 mmHg 26%
    19:00 +24°C° 0 mm 1 m/s 683 mmHg 29%
    20:00 +23°C° 0 mm 2 m/s 684 mmHg 31%
    21:00 +21°C° 0 mm 2 m/s 683 mmHg 32%
    22:00 +20°C° 0 mm 2 m/s 683 mmHg 34%
    23:00 +20°C° 0 mm 2 m/s 683 mmHg 35%

    29 Maio, Terça-feira

    Tempo Temperatura Precipitação Vento Pressão Humidade
    00:00 +19°C° 0 mm 2 m/s 683 mmHg 36%
    01:00 +19°C° 0 mm 2 m/s 683 mmHg 38%
    02:00 +18°C° 0 mm 2 m/s 682 mmHg 39%
    03:00 +18°C° 0 mm 2 m/s 682 mmHg 41%
    04:00 +17°C° 0 mm 2 m/s 682 mmHg 43%
    05:00 +17°C° 0 mm 2 m/s 682 mmHg 45%
    06:00 +17°C° 0 mm 2 m/s 682 mmHg 45%
    07:00 +18°C° 0 mm 3 m/s 682 mmHg 45%
    08:00 +18°C° 0 mm 3 m/s 683 mmHg 45%
    09:00 +21°C° 0 mm 3 m/s 683 mmHg 38%
    10:00 +24°C° 0 mm 3 m/s 683 mmHg 32%
    11:00 +27°C° 0 mm 3 m/s 684 mmHg 26%
    12:00 +27°C° 0 mm 4 m/s 683 mmHg 26%
    13:00 +28°C° 0 mm 4 m/s 682 mmHg 25%
    14:00 +28°C° 0 mm 4 m/s 682 mmHg 25%
    15:00 +28°C° 0 mm 3 m/s 681 mmHg 25%
    16:00 +28°C° 0 mm 3 m/s 681 mmHg 26%
    17:00 +27°C° 0 mm 2 m/s 681 mmHg 26%
    18:00 +26°C° 0 mm 2 m/s 681 mmHg 27%
    19:00 +24°C° 0 mm 2 m/s 681 mmHg 28%
    20:00 +23°C° 0 mm 2 m/s 681 mmHg 30%
    21:00 +21°C° 0 mm 2 m/s 681 mmHg 28%
    22:00 +20°C° 0 mm 2 m/s 682 mmHg 26%
    23:00 +18°C° 0 mm 2 m/s 682 mmHg 25%

    30 Maio, Quarta-feira

    Tempo Temperatura Precipitação Vento Pressão Humidade
    00:00 +18°C° 0 mm 2 m/s 681 mmHg 24%
    01:00 +17°C° 0 mm 2 m/s 681 mmHg 24%
    02:00 +16°C° 0 mm 2 m/s 681 mmHg 23%
    03:00 +16°C° 0 mm 2 m/s 681 mmHg 24%
    04:00 +15°C° 0 mm 1 m/s 681 mmHg 25%
    05:00 +15°C° 0 mm 1 m/s 681 mmHg 25%
    06:00 +15°C° 0 mm 1 m/s 681 mmHg 25%
    07:00 +16°C° 0 mm 1 m/s 681 mmHg 25%
    08:00 +16°C° 0 mm 1 m/s 682 mmHg 26%
    09:00 +20°C° 0 mm 1 m/s 682 mmHg 23%
    10:00 +23°C° 0 mm 2 m/s 682 mmHg 20%
    11:00 +26°C° 0 mm 2 m/s 683 mmHg 17%
    12:00 +28°C° 0 mm 3 m/s 682 mmHg 17%
    13:00 +29°C° 0 mm 3 m/s 682 mmHg 17%
    14:00 +32°C° 0 mm 4 m/s 681 mmHg 17%
    15:00 +30°C° 0 mm 3 m/s 681 mmHg 19%
    16:00 +29°C° 0 mm 2 m/s 680 mmHg 20%
    17:00 +28°C° 0 mm 2 m/s 680 mmHg 22%
    18:00 +28°C° 0 mm 2 m/s 680 mmHg 23%
    19:00 +27°C° 0 mm 2 m/s 680 mmHg 24%
    20:00 +26°C° 0 mm 3 m/s 681 mmHg 26%
    21:00 +26°C° 0 mm 3 m/s 681 mmHg 27%
    22:00 +26°C° 0 mm 4 m/s 681 mmHg 28%
    23:00 +26°C° 0 mm 5 m/s 681 mmHg 29%

    31 Maio, Quinta-feira

    Tempo Temperatura Precipitação Vento Pressão Humidade
    00:00 +25°C° 0 mm 5 m/s 681 mmHg 31%
    01:00 +25°C° 0 mm 5 m/s 680 mmHg 33%
    02:00 +23°C° 0 mm 5 m/s 680 mmHg 35%
    03:00 +22°C° 0 mm 6 m/s 680 mmHg 38%
    04:00 +21°C° 0 mm 6 m/s 680 mmHg 42%
    05:00 +21°C° 0 mm 6 m/s 679 mmHg 45%
    06:00 +21°C° 0 mm 5 m/s 680 mmHg 44%
    07:00 +21°C° 0 mm 4 m/s 681 mmHg 44%
    08:00 +21°C° 0 mm 3 m/s 681 mmHg 43%
    09:00 +21°C° 0 mm 3 m/s 682 mmHg 39%
    10:00 +22°C° 0 mm 3 m/s 682 mmHg 34%
    11:00 +22°C° 0 mm 3 m/s 682 mmHg 30%
    12:00 +23°C° 0 mm 4 m/s 682 mmHg 24%
    13:00 +25°C° 0 mm 4 m/s 682 mmHg 19%
    14:00 +26°C° 0 mm 4 m/s 681 mmHg 14%
    15:00 +26°C° 0 mm 4 m/s 681 mmHg 13%
    16:00 +25°C° 0 mm 3 m/s 681 mmHg 13%
    17:00 +25°C° 0 mm 3 m/s 681 mmHg 12%
    18:00 +22°C° 0 mm 3 m/s 681 mmHg 14%
    19:00 +20°C° 0 mm 3 m/s 682 mmHg 16%
    20:00 +17°C° 0 mm 3 m/s 682 mmHg 17%
    21:00 +17°C° 0 mm 3 m/s 682 mmHg 19%
    22:00 +16°C° 0 mm 3 m/s 682 mmHg 21%
    23:00 +15°C° 0 mm 2 m/s 682 mmHg 22%
    Mostrar mais